257
FGUS64 KORN 161811
ESPORN
EXTENDED STREAMFLOW PREDICTION
NATIONAL WEATHER SERVICE RIVER FORECAST CENTER, SLIDELL, LA
100 PM CDT WED 16 2014

   DATE   CPGM7 CIRI2 NMDM7 TPTT1 CRTM7 OSGA4 MEMT1 TRPM6 HEEA4
04-17-14   21.1  40.2  29.1  31.9  30.2  25.8  25.8  37.5  34.1
04-18-14   21.1  38.5  27.9  31.1  29.8  25.4  25.5  37.2  33.9
04-19-14   22.0  36.9  26.7  30.0  29.1  24.9  25.1  36.7  33.5
04-20-14   23.1  35.5  25.6  29.0  28.2  24.1  24.5  36.2  33.0
04-21-14   23.8  34.2  24.5  28.1  27.6  23.5  24.0  35.7  32.4
04-22-14   24.0  32.9  23.6  27.2  26.8  22.8  23.3  35.0  31.9
04-23-14   24.1  31.9  22.7  26.4  26.2  22.1  22.7  34.4  31.3
04-24-14   24.1  30.7  21.8  25.7  25.6  21.5  22.2  33.9  30.7
04-25-14   24.0  29.6  20.9  24.9  25.0  21.0  21.6  33.3  30.2
04-26-14   23.8  28.6  20.0  24.2  24.4  20.4  21.1  32.8  29.6
04-27-14   23.6  28.0  19.5  23.6  23.9  19.8  20.6  32.3  29.1
04-28-14   23.5  27.3  19.0  23.1  23.5  19.4  20.1  31.8  28.6
04-29-14   23.5  26.7  18.5  22.7  23.1  19.0  19.8  31.3  28.2
04-30-14   23.5  26.1  17.9  22.2  22.8  18.6  19.4  31.0  27.8
05-01-14   23.4  25.5  17.6  21.9  22.4  18.3  19.1  30.6  27.4
05-02-14   23.2  25.1  17.1  21.4  22.1  18.0  18.8  30.3  27.1
05-03-14   22.8  24.6  16.7  21.1  21.9  17.6  18.5  30.0  26.7
05-04-14   22.2  24.1  16.3  20.8  21.6  17.4  18.1  29.7  26.4
05-05-14   21.8  23.7  16.0  20.4  21.3  17.1  17.9  29.5  26.1
05-06-14   21.3  23.3  15.6  20.1  21.1  16.8  17.6  29.2  25.8
05-07-14   20.9  22.9  15.4  19.8  20.8  16.5  17.4  28.9  25.6
05-08-14   20.5  22.6  15.1  19.6  20.6  16.3  17.1  28.6  25.3
05-09-14   20.1  22.3  14.8  19.4  20.4  16.1  16.9  28.4  25.0
05-10-14   19.8  21.9  14.6  19.1  20.2  15.9  16.7  28.1  24.8
05-11-14   19.5  21.8  14.3  18.9  20.0  15.6  16.4  27.9  24.5
05-12-14   19.2  21.5  14.1  18.7  19.8  15.5  16.2  27.7  24.3
05-13-14   18.9  21.3  13.9  18.5  19.7  15.3  16.0  27.5  24.0
05-14-14   18.6  21.1  13.7  18.3  19.6  15.1  15.8  27.3  23.8

   DATE   ARSA4 GEEM6 VCKM6 NTZM6 RRLL1 BTRL1 DONL1 RRVL1 NORL1
04-17-14   30.2  42.8  37.7  44.5  46.9  30.7  21.4  16.3  11.6
04-18-14   30.1  42.9  38.0  44.8  47.0  31.0  21.6  16.5  11.9
04-19-14   29.8  42.7  38.0  44.9  47.1  31.0  21.7  16.6  12.0
04-20-14   29.5  42.4  37.8  44.8  47.2  31.0  21.7  16.5  12.0
04-21-14   29.1  42.0  37.5  44.7  47.1  31.0  21.6  16.5  11.9
04-22-14   28.5  41.4  37.3  44.6  47.0  30.9  21.6  16.5  11.9
04-23-14   28.0  40.9  36.9  44.4  46.9  30.8  21.5  16.5  11.9
04-24-14   27.5  40.4  36.5  44.1  46.7  30.7  21.5  16.4  11.8
04-25-14   26.9  39.8  36.2  43.9  46.6  30.6  21.4  16.3  11.7
04-26-14   26.4  39.2  35.7  43.7  46.4  30.5  21.3  16.3  11.7
04-27-14   25.9  38.7  35.4  43.4  46.3  30.3  21.2  16.2  11.6
04-28-14   25.4  38.3  35.0  43.2  46.0  30.2  21.1  16.1  11.6
04-29-14   24.9  37.8  34.7  42.9  45.9  30.1  21.0  16.0  11.6
04-30-14   24.6  37.3  34.4  42.7  45.7  29.9  20.9  16.0  11.5
05-01-14   24.2  36.8  34.0  42.5  45.6  29.8  20.8  15.9  11.5
05-02-14   23.8  36.5  33.7  42.3  45.4  29.7  20.7  15.8  11.4
05-03-14   23.6  36.1  33.5  42.1  45.2  29.5  20.6  15.7  11.4
05-04-14   23.2  35.9  33.2  41.9  45.1  29.4  20.5  15.6  11.3
05-05-14   23.0  35.5  33.0  41.8  45.0  29.3  20.4  15.6  11.3
05-06-14   22.7  35.2  32.7  41.6  44.8  29.2  20.3  15.5  11.2
05-07-14   22.4  35.0  32.5  41.4  44.7  29.1  20.2  15.5  11.2
05-08-14   22.2  34.6  32.3  41.2  44.6  29.0  20.1  15.4  11.1
05-09-14   21.9  34.4  32.1  41.1  44.5  28.9  20.0  15.4  11.1
05-10-14   21.6  34.1  31.9  40.9  44.4  28.7  20.0  15.3  11.0
05-11-14   21.4  33.9  31.7  40.8  44.2  28.6  19.9  15.2  11.0
05-12-14   21.2  33.6  31.5  40.6  44.1  28.5  19.8  15.1  10.9
05-13-14   21.0  33.4  31.3  40.5  44.0  28.5  19.8  15.1  10.9
05-14-14   20.8  33.1  31.1  40.3  43.8  28.3  19.7  15.1  10.9

NOTE: STAGE FORECASTS ARE BASED ON FUTURE RAINFALL COVERING
THE NEXT 24 HOURS.

END ORN


$$




Weekly Mississippi River Forecast and Stage Hydrographs
  Twenty-Eight (28) Day Graphical Lower Mississippi River Forecast
- Updates every Wednesday by 4:00 PM

USA.gov is the U.S. government's official web portal to all federal, state and local government web resources and services.